N8767 VGHS-OEJN

Flight info

Callsign N8767
Flight time N/A
Altitude 34000
Route IKOGU1C IKOGU A462 CEA A791 BPL L639 RASKI N881 KIPOL L444 TOLDA M628 PEKEM DCT MEDPO DCT ITRUX Y511 ASMIS T218 IMGUT M309 VEMEM
Aircraft B737/M-SDE2E3FGHIRWXY/LB1

Departure

Time 2026-05-01 10:01
Airport Hazrat Shahjalal International Airport (VGHS)

Arrival

Time N/A
Airport King Abdulaziz International Airport (OEJN)
Time Latitude Longitude Altitude Speed Heading
2026-05-01 09:27 23.85074 90.39967 35 ft 0 kts 234°
2026-05-01 09:47 23.85083 90.39982 35 ft 4 kts 234°
2026-05-01 09:47 23.85099 90.40006 34 ft 4 kts 236°
2026-05-01 09:48 23.85113 90.40030 35 ft 3 kts 246°
2026-05-01 09:48 23.85115 90.40050 33 ft 3 kts 296°
2026-05-01 09:48 23.85108 90.40061 33 ft 2 kts 313°
2026-05-01 09:48 23.85104 90.40065 34 ft 0 kts 314°
2026-05-01 09:51 23.85116 90.40050 32 ft 5 kts 309°
2026-05-01 09:51 23.85141 90.40030 35 ft 5 kts 327°
2026-05-01 09:51 23.85170 90.40005 35 ft 6 kts 305°
2026-05-01 09:51 23.85161 90.39951 33 ft 10 kts 235°
2026-05-01 09:52 23.85120 90.39893 35 ft 9 kts 232°
2026-05-01 09:52 23.85117 90.39831 35 ft 9 kts 301°
2026-05-01 09:52 23.85163 90.39788 35 ft 9 kts 324°
2026-05-01 09:52 23.85215 90.39746 35 ft 9 kts 324°
2026-05-01 09:53 23.85264 90.39707 34 ft 9 kts 324°
2026-05-01 09:53 23.85312 90.39669 35 ft 9 kts 324°
2026-05-01 09:53 23.85360 90.39632 35 ft 9 kts 326°
2026-05-01 09:53 23.85410 90.39594 35 ft 10 kts 324°
2026-05-01 09:54 23.85481 90.39536 35 ft 14 kts 323°
2026-05-01 09:54 23.85554 90.39479 35 ft 12 kts 324°
2026-05-01 09:54 23.85622 90.39424 34 ft 12 kts 324°
2026-05-01 09:54 23.85689 90.39372 35 ft 11 kts 324°
2026-05-01 09:55 23.85748 90.39325 35 ft 10 kts 323°
2026-05-01 09:55 23.85765 90.39309 35 ft 0 kts 315°
2026-05-01 09:55 23.85772 90.39285 33 ft 11 kts 267°
2026-05-01 09:55 23.85731 90.39215 35 ft 11 kts 233°
2026-05-01 09:56 23.85686 90.39148 35 ft 11 kts 236°
2026-05-01 09:56 23.85645 90.39083 35 ft 10 kts 236°
2026-05-01 09:56 23.85603 90.39020 35 ft 10 kts 233°
2026-05-01 09:56 23.85560 90.38957 34 ft 10 kts 233°
2026-05-01 09:57 23.85516 90.38897 34 ft 10 kts 225°
2026-05-01 09:57 23.85458 90.38889 34 ft 9 kts 146°
2026-05-01 09:57 23.85454 90.38892 34 ft 0 kts 145°
2026-05-01 10:00 23.85443 90.38900 33 ft 9 kts 144°
2026-05-01 10:00 23.85231 90.39068 33 ft 71 kts 143°
2026-05-01 10:00 23.84663 90.39520 35 ft 130 kts 143°
2026-05-01 10:00 23.83772 90.40200 91 ft 173 kts 147°
2026-05-01 10:01 23.82751 90.41009 508 ft 190 kts 146°
2026-05-01 10:01 23.81622 90.41823 1195 ft 192 kts 147°
2026-05-01 10:01 23.80572 90.42595 2087 ft 183 kts 145°
2026-05-01 10:01 23.79471 90.43431 2475 ft 208 kts 145°
2026-05-01 10:02 23.78095 90.44148 2690 ft 234 kts 172°
2026-05-01 10:02 23.76430 90.44099 3151 ft 244 kts 188°
2026-05-01 10:02 23.74732 90.43852 3804 ft 249 kts 190°
2026-05-01 10:02 23.72956 90.43583 4300 ft 266 kts 189°
2026-05-01 10:03 23.71095 90.43291 5018 ft 274 kts 193°
2026-05-01 10:03 23.69416 90.42395 5842 ft 270 kts 227°
2026-05-01 10:03 23.68713 90.41302 6417 ft 267 kts 248°
2026-05-01 10:03 23.68029 90.39409 7236 ft 268 kts 251°
2026-05-01 10:04 23.67138 90.36844 8312 ft 272 kts 251°
2026-05-01 10:04 23.66681 90.35568 8876 ft 274 kts 250°
2026-05-01 10:04 23.65965 90.33627 9669 ft 276 kts 250°
2026-05-01 10:04 23.65219 90.31660 10254 ft 289 kts 250°
2026-05-01 10:05 23.64404 90.29553 10405 ft 314 kts 249°
2026-05-01 10:05 23.63512 90.27289 10571 ft 336 kts 249°
2026-05-01 10:05 23.62551 90.24883 10734 ft 356 kts 248°
2026-05-01 10:05 23.61538 90.22373 11117 ft 366 kts 248°
2026-05-01 10:06 23.60499 90.19820 11743 ft 369 kts 248°
2026-05-01 10:06 23.59451 90.17256 12451 ft 370 kts 248°
2026-05-01 10:06 23.58397 90.14683 13120 ft 373 kts 248°
2026-05-01 10:06 23.57336 90.12093 13723 ft 376 kts 248°
2026-05-01 10:07 23.56262 90.09476 14274 ft 379 kts 248°
2026-05-01 10:07 23.55183 90.06847 14827 ft 382 kts 247°
2026-05-01 10:07 23.54093 90.04193 15369 ft 385 kts 247°
2026-05-01 10:07 23.52999 90.01530 15936 ft 388 kts 247°
2026-05-01 10:08 23.50774 89.96117 17046 ft 393 kts 246°
2026-05-01 10:08 23.49653 89.93394 17578 ft 396 kts 246°
2026-05-01 10:08 23.48520 89.90642 18073 ft 399 kts 246°
2026-05-01 10:09 23.47381 89.87877 18499 ft 401 kts 246°
2026-05-01 10:09 23.46249 89.85132 18944 ft 403 kts 246°
2026-05-01 10:09 23.45096 89.82338 19400 ft 405 kts 246°
2026-05-01 10:09 23.43927 89.79506 19830 ft 407 kts 246°
2026-05-01 10:10 23.42763 89.76688 20225 ft 409 kts 246°
2026-05-01 10:10 23.41592 89.73854 20629 ft 411 kts 246°
2026-05-01 10:10 23.39247 89.68185 21383 ft 415 kts 246°
2026-05-01 10:11 23.38055 89.65325 21738 ft 417 kts 245°
2026-05-01 10:11 23.36635 89.62547 22079 ft 420 kts 239°
2026-05-01 10:11 23.35043 89.59877 22439 ft 422 kts 238°
2026-05-01 10:11 23.33420 89.57213 22778 ft 424 kts 238°
2026-05-01 10:12 23.31784 89.54533 23089 ft 426 kts 238°
2026-05-01 10:12 23.30145 89.51838 23384 ft 428 kts 238°
2026-05-01 10:12 23.26871 89.46413 23897 ft 430 kts 238°
2026-05-01 10:13 23.25231 89.43683 24157 ft 431 kts 238°
2026-05-01 10:13 23.23591 89.40952 24413 ft 432 kts 238°
2026-05-01 10:13 23.21947 89.38212 24636 ft 434 kts 238°
2026-05-01 10:14 23.18645 89.32712 25051 ft 437 kts 238°
2026-05-01 10:14 23.16974 89.29931 25275 ft 438 kts 238°
2026-05-01 10:14 23.15309 89.27164 25484 ft 439 kts 238°
2026-05-01 10:14 23.13633 89.24378 25692 ft 440 kts 238°
2026-05-01 10:15 23.11953 89.21589 25844 ft 442 kts 239°
2026-05-01 10:15 23.10287 89.18823 25974 ft 444 kts 239°
2026-05-01 10:15 23.08593 89.16013 26157 ft 445 kts 239°
2026-05-01 10:15 23.06896 89.13200 26332 ft 446 kts 239°
2026-05-01 10:16 23.05193 89.10379 26508 ft 447 kts 239°
2026-05-01 10:16 23.03485 89.07551 26668 ft 448 kts 239°
2026-05-01 10:16 23.00059 89.01883 26985 ft 450 kts 239°
2026-05-01 10:17 22.98335 88.99033 27148 ft 450 kts 239°
2026-05-01 10:17 22.94900 88.93361 27607 ft 448 kts 239°
2026-05-01 10:17 22.93189 88.90536 27852 ft 448 kts 239°
2026-05-01 10:18 22.89910 88.84849 28259 ft 446 kts 242°
2026-05-01 10:18 22.88325 88.81947 28313 ft 450 kts 242°
2026-05-01 10:19 22.85130 88.76089 28652 ft 451 kts 242°
2026-05-01 10:19 22.83523 88.73177 28960 ft 449 kts 242°
2026-05-01 10:19 22.81913 88.70274 29225 ft 448 kts 242°
2026-05-01 10:20 22.78692 88.64489 29611 ft 448 kts 242°
2026-05-01 10:20 22.77074 88.61587 29835 ft 447 kts 242°
2026-05-01 10:20 22.75474 88.58720 30125 ft 444 kts 242°
2026-05-01 10:20 22.73881 88.55865 30295 ft 445 kts 242°
2026-05-01 10:21 22.72275 88.52985 30419 ft 447 kts 242°
2026-05-01 10:21 22.69318 88.47081 30792 ft 442 kts 254°
2026-05-01 10:22 22.68088 88.37309 31146 ft 440 kts 275°
2026-05-01 10:22 22.68563 88.30734 31692 ft 437 kts 276°
2026-05-01 10:23 22.68812 88.27451 31899 ft 437 kts 276°
2026-05-01 10:23 22.69282 88.20895 32385 ft 436 kts 276°
2026-05-01 10:23 22.69501 88.17641 32837 ft 430 kts 277°
2026-05-01 10:24 22.69917 88.11283 33736 ft 420 kts 277°
2026-05-01 10:24 22.70326 88.04957 33737 ft 419 kts 277°
2026-05-01 10:25 22.71126 87.92438 33742 ft 414 kts 277°
2026-05-01 10:26 22.71521 87.86227 33738 ft 413 kts 277°
2026-05-01 10:27 22.72301 87.73832 33733 ft 412 kts 277°
2026-05-01 10:28 22.72879 87.64537 33722 ft 414 kts 277°
2026-05-01 10:28 22.73459 87.55146 33735 ft 418 kts 277°
2026-05-01 10:29 22.74035 87.45706 33729 ft 422 kts 277°
2026-05-01 10:30 22.74798 87.33040 33727 ft 421 kts 277°
2026-05-01 10:31 22.75532 87.20611 33701 ft 392 kts 277°
2026-05-01 10:32 22.75861 87.14937 33709 ft 363 kts 277°
2026-05-01 10:32 22.76016 87.12266 33695 ft 349 kts 277°
2026-05-01 10:32 22.76311 87.07195 33707 ft 333 kts 278°
2026-05-01 10:33 22.76617 87.02096 33736 ft 346 kts 278°
2026-05-01 10:33 22.76932 86.96760 33742 ft 361 kts 277°
2026-05-01 10:34 22.77092 86.94028 33734 ft 368 kts 277°
2026-05-01 10:34 22.77413 86.88439 33739 ft 380 kts 277°
2026-05-01 10:35 22.77742 86.82649 33747 ft 392 kts 277°
2026-05-01 10:35 22.77911 86.79680 33744 ft 398 kts 277°
2026-05-01 10:35 22.78252 86.73619 33748 ft 408 kts 276°
2026-05-01 10:36 22.78776 86.64234 33751 ft 420 kts 276°
2026-05-01 10:37 22.79125 86.57916 33739 ft 422 kts 276°
2026-05-01 10:37 22.79646 86.48378 33739 ft 424 kts 276°
2026-05-01 10:38 22.79993 86.41994 33747 ft 424 kts 276°
2026-05-01 10:38 22.80337 86.35610 33743 ft 425 kts 276°
2026-05-01 10:39 22.80679 86.29218 33761 ft 424 kts 276°
2026-05-01 10:39 22.81017 86.22828 33716 ft 424 kts 276°
2026-05-01 10:40 22.81356 86.16451 33717 ft 424 kts 277°
2026-05-01 10:40 22.81854 86.10087 33722 ft 423 kts 278°
2026-05-01 10:41 22.82417 86.03766 33721 ft 422 kts 278°
2026-05-01 10:42 22.83227 85.94264 33740 ft 421 kts 278°
2026-05-01 10:42 22.83747 85.87942 33762 ft 421 kts 278°
2026-05-01 10:43 22.84262 85.81619 33767 ft 420 kts 278°
2026-05-01 10:43 22.84773 85.75322 33771 ft 419 kts 278°
2026-05-01 10:44 22.85280 85.69035 33793 ft 419 kts 277°
2026-05-01 10:44 22.85783 85.62768 33789 ft 419 kts 277°
2026-05-01 10:45 22.86285 85.56491 33801 ft 419 kts 277°
2026-05-01 10:45 22.86785 85.50198 33810 ft 419 kts 277°
2026-05-01 10:46 22.87284 85.43889 33797 ft 419 kts 277°
2026-05-01 10:46 22.87778 85.37617 33806 ft 420 kts 278°
2026-05-01 10:47 22.88272 85.31303 33812 ft 420 kts 278°
2026-05-01 10:47 22.88762 85.24998 33813 ft 421 kts 278°
2026-05-01 10:48 22.89252 85.18666 33813 ft 422 kts 278°
2026-05-01 10:48 22.89659 85.13401 33808 ft 422 kts 278°
2026-05-01 10:49 22.90152 85.07037 33818 ft 423 kts 278°
2026-05-01 10:49 22.90643 85.00674 33820 ft 424 kts 277°
2026-05-01 10:50 22.91168 84.93789 33836 ft 425 kts 277°
2026-05-01 10:50 22.91614 84.87914 33834 ft 425 kts 277°
2026-05-01 10:51 22.92096 84.81518 33832 ft 425 kts 277°
2026-05-01 10:51 22.92575 84.75131 33838 ft 425 kts 277°
2026-05-01 10:52 22.93053 84.68726 33837 ft 425 kts 277°
2026-05-01 10:52 22.93527 84.62337 33846 ft 425 kts 277°
2026-05-01 10:53 22.93998 84.55955 33836 ft 424 kts 277°
2026-05-01 10:53 22.94464 84.49603 33836 ft 422 kts 277°
2026-05-01 10:54 22.94926 84.43265 33837 ft 420 kts 277°
2026-05-01 10:54 22.95383 84.36962 33840 ft 419 kts 277°
2026-05-01 10:55 22.95837 84.30673 33848 ft 417 kts 277°
2026-05-01 10:55 22.96285 84.24408 33843 ft 416 kts 277°
2026-05-01 10:56 22.96731 84.18145 33852 ft 415 kts 277°
2026-05-01 10:56 22.97169 84.11937 33844 ft 415 kts 277°
2026-05-01 10:57 22.97531 84.05680 33847 ft 416 kts 277°
2026-05-01 10:57 22.97860 83.99418 33849 ft 416 kts 277°
2026-05-01 10:58 22.98190 83.93142 33848 ft 417 kts 277°
2026-05-01 10:58 22.98524 83.86862 33836 ft 417 kts 277°
2026-05-01 10:59 22.98859 83.80573 33865 ft 418 kts 277°
2026-05-01 10:59 22.99192 83.74276 33845 ft 419 kts 277°
2026-05-01 11:00 22.99523 83.67962 33845 ft 419 kts 277°
2026-05-01 11:00 22.99852 83.61645 33839 ft 420 kts 277°
2026-05-01 11:01 23.00178 83.55320 33835 ft 420 kts 277°
2026-05-01 11:01 23.00502 83.48993 33832 ft 420 kts 277°
2026-05-01 11:02 23.00825 83.42652 33814 ft 420 kts 277°
2026-05-01 11:02 23.01144 83.36321 33821 ft 420 kts 277°
2026-05-01 11:03 23.01461 83.29991 33804 ft 420 kts 277°
2026-05-01 11:03 23.01775 83.23657 33798 ft 420 kts 277°
2026-05-01 11:04 23.02087 83.17319 33804 ft 420 kts 276°
2026-05-01 11:04 23.02397 83.10978 33790 ft 420 kts 276°
2026-05-01 11:05 23.02703 83.04660 33786 ft 419 kts 276°
2026-05-01 11:05 23.03007 82.98330 33787 ft 419 kts 276°
2026-05-01 11:06 23.03305 82.92055 33781 ft 419 kts 276°
2026-05-01 11:06 23.03605 82.85705 33777 ft 418 kts 276°
2026-05-01 11:07 23.04046 82.76287 33751 ft 418 kts 276°
2026-05-01 11:07 23.04337 82.69983 33759 ft 418 kts 276°
2026-05-01 11:08 23.04626 82.63677 33760 ft 419 kts 276°
2026-05-01 11:09 23.05055 82.54199 33751 ft 419 kts 276°
2026-05-01 11:09 23.05339 82.47869 33762 ft 420 kts 276°
2026-05-01 11:10 23.05759 82.38367 33744 ft 421 kts 276°
2026-05-01 11:10 23.06037 82.32008 33749 ft 421 kts 276°
2026-05-01 11:11 23.06311 82.25661 33747 ft 421 kts 276°
2026-05-01 11:11 23.06584 82.19301 33748 ft 422 kts 276°
2026-05-01 11:12 23.06893 82.12936 33749 ft 422 kts 277°
2026-05-01 11:12 23.07302 82.06588 33761 ft 424 kts 277°
2026-05-01 11:13 23.07727 82.00116 33762 ft 432 kts 277°
2026-05-01 11:13 23.08137 81.93612 33749 ft 436 kts 277°
2026-05-01 11:14 23.08540 81.87042 33756 ft 437 kts 277°
2026-05-01 11:14 23.08940 81.80459 33756 ft 437 kts 277°
2026-05-01 11:15 23.09336 81.73891 33760 ft 436 kts 277°
2026-05-01 11:15 23.09731 81.67305 33760 ft 435 kts 277°
2026-05-01 11:16 23.10121 81.60753 33760 ft 434 kts 277°
2026-05-01 11:16 23.10509 81.54204 33773 ft 436 kts 277°
2026-05-01 11:17 23.10899 81.47587 33781 ft 441 kts 276°
2026-05-01 11:17 23.11287 81.40928 33771 ft 442 kts 276°
2026-05-01 11:18 23.11673 81.34259 33777 ft 442 kts 276°
2026-05-01 11:18 23.12055 81.27593 33771 ft 442 kts 276°
2026-05-01 11:19 23.12435 81.20939 33758 ft 441 kts 276°
2026-05-01 11:19 23.12811 81.14294 33767 ft 441 kts 276°
2026-05-01 11:20 23.13184 81.07652 33768 ft 440 kts 276°
2026-05-01 11:20 23.13554 81.01012 33767 ft 440 kts 276°
2026-05-01 11:21 23.13920 80.94392 33773 ft 439 kts 276°
2026-05-01 11:21 23.14283 80.87761 33770 ft 439 kts 276°
2026-05-01 11:22 23.14640 80.81179 33761 ft 439 kts 276°
2026-05-01 11:22 23.14999 80.74566 33764 ft 438 kts 276°
2026-05-01 11:23 23.15362 80.67965 33787 ft 438 kts 277°
2026-05-01 11:23 23.15723 80.61360 33768 ft 437 kts 277°
2026-05-01 11:24 23.16079 80.54770 33759 ft 437 kts 277°
2026-05-01 11:25 23.16604 80.44900 33753 ft 436 kts 276°
2026-05-01 11:25 23.17122 80.35030 33756 ft 436 kts 276°
2026-05-01 11:26 23.17634 80.25166 33743 ft 436 kts 276°
2026-05-01 11:27 23.17971 80.18593 33747 ft 436 kts 276°
2026-05-01 11:27 23.18305 80.12017 33750 ft 436 kts 276°
2026-05-01 11:28 23.18637 80.05436 33749 ft 436 kts 276°
2026-05-01 11:28 23.18935 79.98894 33744 ft 437 kts 276°
2026-05-01 11:29 23.19356 79.89012 33744 ft 436 kts 276°
2026-05-01 11:30 23.19776 79.79126 33746 ft 436 kts 276°
2026-05-01 11:30 23.20052 79.72557 33747 ft 435 kts 276°
2026-05-01 11:31 23.20325 79.66000 33756 ft 433 kts 276°
2026-05-01 11:31 23.20595 79.59466 33755 ft 433 kts 276°
2026-05-01 11:32 23.20821 79.52924 33752 ft 433 kts 275°
2026-05-01 11:32 23.20936 79.46394 33757 ft 433 kts 274°
2026-05-01 11:33 23.21039 79.39896 33760 ft 432 kts 274°
2026-05-01 11:33 23.21150 79.33376 33752 ft 431 kts 275°
2026-05-01 11:34 23.21246 79.27951 33764 ft 431 kts 275°
2026-05-01 11:34 23.21360 79.21434 33754 ft 431 kts 275°
2026-05-01 11:35 23.21471 79.14928 33756 ft 430 kts 275°
2026-05-01 11:35 23.21596 79.07363 33760 ft 430 kts 274°
2026-05-01 11:36 23.21701 79.00866 33752 ft 430 kts 274°
2026-05-01 11:36 23.21787 78.95410 33749 ft 431 kts 274°
2026-05-01 11:37 23.21886 78.88881 33744 ft 432 kts 274°
2026-05-01 11:37 23.21982 78.82350 33743 ft 433 kts 274°
2026-05-01 11:38 23.22077 78.75802 33747 ft 434 kts 274°
2026-05-01 11:38 23.22254 78.69252 33752 ft 433 kts 276°
2026-05-01 11:39 23.22600 78.62740 33740 ft 434 kts 276°
2026-05-01 11:39 23.22950 78.56190 33746 ft 435 kts 276°
2026-05-01 11:40 23.23275 78.49616 33744 ft 435 kts 276°
2026-05-01 11:40 23.23586 78.43035 33746 ft 436 kts 276°
2026-05-01 11:41 23.23891 78.36462 33737 ft 436 kts 276°
2026-05-01 11:41 23.24194 78.29873 33736 ft 436 kts 276°
2026-05-01 11:42 23.24493 78.23303 33729 ft 436 kts 276°
2026-05-01 11:42 23.24791 78.16725 33732 ft 435 kts 276°
2026-05-01 11:43 23.25086 78.10143 33727 ft 435 kts 276°
2026-05-01 11:43 23.25377 78.03569 33736 ft 436 kts 276°
2026-05-01 11:44 23.25811 77.93699 33722 ft 435 kts 275°
2026-05-01 11:44 23.26094 77.87162 33736 ft 435 kts 275°
2026-05-01 11:45 23.26378 77.80536 33735 ft 436 kts 275°
2026-05-01 11:45 23.26656 77.73999 33742 ft 436 kts 275°
2026-05-01 11:46 23.26933 77.67418 33743 ft 436 kts 275°
2026-05-01 11:46 23.27207 77.60820 33741 ft 436 kts 275°
2026-05-01 11:47 23.27478 77.54233 33746 ft 436 kts 275°
2026-05-01 11:47 23.27746 77.47653 33745 ft 436 kts 275°
2026-05-01 11:48 23.28010 77.41075 33747 ft 435 kts 275°
2026-05-01 11:48 23.28270 77.34514 33750 ft 435 kts 274°
2026-05-01 11:49 23.27968 77.27916 33747 ft 437 kts 268°
2026-05-01 11:49 23.27471 77.21308 33755 ft 437 kts 268°
2026-05-01 11:50 23.26983 77.14736 33745 ft 437 kts 268°
2026-05-01 11:50 23.26507 77.08136 33748 ft 437 kts 268°
2026-05-01 11:51 23.26035 77.01557 33750 ft 436 kts 268°
2026-05-01 11:51 23.25566 76.95026 33745 ft 436 kts 268°
2026-05-01 11:52 23.25090 76.88449 33743 ft 436 kts 268°
2026-05-01 11:52 23.24612 76.81880 33739 ft 436 kts 268°
2026-05-01 11:53 23.24130 76.75308 33746 ft 436 kts 268°
2026-05-01 11:53 23.23647 76.68739 33745 ft 436 kts 268°
2026-05-01 11:54 23.23158 76.62150 33747 ft 437 kts 268°
2026-05-01 11:54 23.22667 76.55558 33747 ft 437 kts 268°
2026-05-01 11:55 23.22174 76.48976 33747 ft 437 kts 268°
2026-05-01 11:55 23.21677 76.42384 33752 ft 438 kts 268°
2026-05-01 11:56 23.21177 76.35794 33754 ft 438 kts 268°
2026-05-01 11:56 23.20673 76.29183 33761 ft 438 kts 268°
2026-05-01 11:57 23.20169 76.22618 33753 ft 439 kts 268°
2026-05-01 11:57 23.19657 76.15977 33761 ft 439 kts 268°
2026-05-01 11:58 23.19143 76.09372 33758 ft 439 kts 268°
2026-05-01 11:59 23.18387 75.99485 33765 ft 439 kts 269°
2026-05-01 11:59 23.18235 75.92872 33770 ft 438 kts 272°
2026-05-01 12:00 23.18192 75.82941 33774 ft 438 kts 271°
2026-05-01 12:01 23.18093 75.73014 33777 ft 438 kts 271°
2026-05-01 12:01 23.18008 75.66389 33772 ft 438 kts 271°
2026-05-01 12:02 23.17918 75.59757 33776 ft 439 kts 271°
2026-05-01 12:02 23.17826 75.53132 33786 ft 439 kts 271°
2026-05-01 12:03 23.17731 75.46505 33778 ft 439 kts 271°
2026-05-01 12:03 23.17634 75.39879 33773 ft 439 kts 271°
2026-05-01 12:04 23.17534 75.33235 33778 ft 439 kts 271°
2026-05-01 12:04 23.17438 75.26606 33780 ft 439 kts 272°
2026-05-01 12:05 23.17569 75.19977 33786 ft 439 kts 274°
2026-05-01 12:05 23.17900 75.10030 33778 ft 439 kts 274°
2026-05-01 12:06 23.18085 75.03385 33758 ft 440 kts 273°
2026-05-01 12:06 23.18250 74.96742 33765 ft 440 kts 273°
2026-05-01 12:07 23.18406 74.90137 33777 ft 440 kts 273°
2026-05-01 12:07 23.18561 74.83435 33765 ft 440 kts 273°
2026-05-01 12:08 23.18712 74.76824 33752 ft 441 kts 273°
2026-05-01 12:08 23.18861 74.70171 33763 ft 440 kts 273°
2026-05-01 12:09 23.19007 74.63509 33744 ft 440 kts 273°
2026-05-01 12:09 23.19151 74.56848 33744 ft 440 kts 273°
2026-05-01 12:10 23.19361 74.46881 33738 ft 440 kts 273°
2026-05-01 12:11 23.19565 74.36887 33732 ft 440 kts 273°
2026-05-01 12:11 23.19698 74.30221 33725 ft 440 kts 272°
2026-05-01 12:12 23.19828 74.23567 33729 ft 441 kts 272°
2026-05-01 12:12 23.19955 74.16897 33714 ft 441 kts 272°
2026-05-01 12:13 23.20079 74.10229 33715 ft 441 kts 272°
2026-05-01 12:13 23.20201 74.03556 33704 ft 442 kts 272°
2026-05-01 12:14 23.20319 73.96911 33700 ft 442 kts 272°
2026-05-01 12:14 23.20435 73.90235 33699 ft 442 kts 272°
2026-05-01 12:15 23.20549 73.83512 33703 ft 442 kts 272°
2026-05-01 12:15 23.20659 73.76838 33686 ft 442 kts 272°
2026-05-01 12:16 23.20766 73.70212 33708 ft 442 kts 272°
2026-05-01 12:16 23.20871 73.63541 33673 ft 442 kts 272°
2026-05-01 12:17 23.20973 73.56861 33686 ft 441 kts 272°
2026-05-01 12:17 23.21072 73.50184 33677 ft 441 kts 272°
2026-05-01 12:18 23.21169 73.43495 33683 ft 445 kts 272°
2026-05-01 12:18 23.21263 73.36750 33682 ft 448 kts 272°
2026-05-01 12:19 23.21355 73.29982 33668 ft 450 kts 272°
2026-05-01 12:19 23.21430 73.24337 33668 ft 451 kts 272°
2026-05-01 12:20 23.21531 73.16347 33675 ft 452 kts 272°
2026-05-01 12:20 23.21601 73.10680 33680 ft 452 kts 271°
2026-05-01 12:21 23.21682 73.03845 33672 ft 451 kts 271°
2026-05-01 12:21 23.21761 72.97024 33676 ft 451 kts 271°
2026-05-01 12:22 23.21836 72.90202 33668 ft 451 kts 271°
2026-05-01 12:22 23.21908 72.83397 33668 ft 451 kts 271°
2026-05-01 12:23 23.21978 72.76581 33662 ft 451 kts 271°
2026-05-01 12:23 23.22044 72.69774 33663 ft 450 kts 271°
2026-05-01 12:24 23.22108 72.62965 33653 ft 450 kts 271°
2026-05-01 12:24 23.22168 72.56156 33652 ft 451 kts 271°
2026-05-01 12:25 23.22254 72.45938 33656 ft 451 kts 271°
2026-05-01 12:26 23.22307 72.39128 33659 ft 451 kts 271°
2026-05-01 12:26 23.22382 72.28890 33659 ft 451 kts 271°
2026-05-01 12:27 23.22449 72.18677 33657 ft 451 kts 271°
2026-05-01 12:28 23.22511 72.08471 33662 ft 451 kts 271°
2026-05-01 12:29 23.22565 71.98236 33662 ft 451 kts 271°
2026-05-01 12:29 23.22613 71.87996 33660 ft 452 kts 271°
2026-05-01 12:30 23.22655 71.77747 33678 ft 452 kts 271°
2026-05-01 12:31 23.22679 71.70911 33680 ft 453 kts 271°
2026-05-01 12:31 23.22700 71.64063 33686 ft 453 kts 271°
2026-05-01 12:32 23.22718 71.57213 33685 ft 453 kts 271°
2026-05-01 12:32 23.22740 71.46932 33694 ft 454 kts 270°
2026-05-01 12:33 23.22750 71.40074 33694 ft 454 kts 270°
2026-05-01 12:33 23.22758 71.33204 33691 ft 454 kts 270°
2026-05-01 12:34 23.22763 71.26336 33703 ft 455 kts 270°
2026-05-01 12:34 23.22765 71.19455 33702 ft 455 kts 270°
2026-05-01 12:35 23.22763 71.12634 33693 ft 454 kts 270°
2026-05-01 12:35 23.22759 71.05764 33695 ft 454 kts 270°
2026-05-01 12:36 23.22752 70.98905 33708 ft 454 kts 270°
2026-05-01 12:36 23.22742 70.92074 33706 ft 453 kts 270°
2026-05-01 12:37 23.22729 70.85214 33710 ft 453 kts 270°
2026-05-01 12:37 23.22713 70.78365 33709 ft 453 kts 270°
2026-05-01 12:38 23.22694 70.71517 33714 ft 453 kts 270°
2026-05-01 12:38 23.22672 70.64669 33715 ft 453 kts 270°
2026-05-01 12:39 23.22647 70.57811 33715 ft 453 kts 270°
2026-05-01 12:39 23.22619 70.50951 33711 ft 453 kts 270°
2026-05-01 12:40 23.22588 70.44096 33716 ft 454 kts 270°
2026-05-01 12:40 23.22554 70.37240 33711 ft 454 kts 270°
2026-05-01 12:41 23.22517 70.30424 33713 ft 454 kts 270°
2026-05-01 12:41 23.22477 70.23536 33710 ft 454 kts 270°
2026-05-01 12:42 23.22435 70.16730 33702 ft 454 kts 270°
2026-05-01 12:42 23.22389 70.09813 33704 ft 455 kts 270°
2026-05-01 12:43 23.22340 70.02939 33707 ft 455 kts 270°
2026-05-01 12:43 23.22288 69.96060 33706 ft 455 kts 270°
2026-05-01 12:44 23.22233 69.89214 33714 ft 455 kts 270°
2026-05-01 12:45 23.22114 69.75415 33713 ft 455 kts 270°
2026-05-01 12:45 23.22050 69.68531 33715 ft 455 kts 270°
2026-05-01 12:46 23.21983 69.61646 33718 ft 455 kts 270°
2026-05-01 12:46 23.21913 69.54761 33715 ft 455 kts 270°
2026-05-01 12:47 23.21840 69.47886 33719 ft 455 kts 270°
2026-05-01 12:47 23.21764 69.40996 33721 ft 456 kts 270°
2026-05-01 12:48 23.21685 69.34099 33726 ft 456 kts 270°
2026-05-01 12:48 23.21603 69.27211 33726 ft 456 kts 270°
2026-05-01 12:49 23.21518 69.20316 33715 ft 456 kts 269°
2026-05-01 12:49 23.21431 69.13463 33717 ft 456 kts 269°
2026-05-01 12:50 23.21340 69.06568 33719 ft 456 kts 269°
2026-05-01 12:50 23.21245 68.99665 33720 ft 456 kts 269°
2026-05-01 12:51 23.21148 68.92772 33726 ft 457 kts 269°
2026-05-01 12:52 23.20997 68.82418 33724 ft 457 kts 269°
2026-05-01 12:52 23.20839 68.72064 33728 ft 456 kts 269°
2026-05-01 12:53 23.20674 68.61725 33725 ft 456 kts 269°
2026-05-01 12:54 23.20561 68.54855 33724 ft 455 kts 269°
2026-05-01 12:54 23.20385 68.44530 33716 ft 455 kts 269°
2026-05-01 12:55 23.20203 68.34216 33722 ft 455 kts 269°
2026-05-01 12:56 23.20077 68.27338 33713 ft 455 kts 269°
2026-05-01 12:56 23.19950 68.20503 33713 ft 455 kts 269°
2026-05-01 12:57 23.19818 68.13590 33712 ft 455 kts 269°
2026-05-01 12:57 23.19616 68.03326 33714 ft 454 kts 269°
2026-05-01 12:58 23.19478 67.96472 33716 ft 454 kts 269°
2026-05-01 12:59 23.19265 67.86201 33711 ft 453 kts 269°
2026-05-01 12:59 23.19046 67.75925 33717 ft 453 kts 268°
2026-05-01 13:00 23.18820 67.65656 33725 ft 453 kts 268°
2026-05-01 13:01 23.18587 67.55382 33720 ft 453 kts 268°
2026-05-01 13:02 23.18347 67.45122 33718 ft 453 kts 268°
2026-05-01 13:07 23.16395 66.70073 33724 ft 451 kts 268°
2026-05-01 13:08 23.16200 66.63250 33730 ft 451 kts 268°
2026-05-01 13:08 23.16003 66.56480 33730 ft 451 kts 268°
2026-05-01 13:09 23.15835 66.50770 33725 ft 451 kts 268°
2026-05-01 13:09 23.15599 66.42847 33732 ft 451 kts 268°
2026-05-01 13:10 23.15426 66.37135 33740 ft 451 kts 268°
2026-05-01 13:10 23.15217 66.30318 33733 ft 451 kts 268°
2026-05-01 13:11 23.15005 66.23521 33728 ft 450 kts 268°
2026-05-01 13:11 23.14791 66.16738 33734 ft 449 kts 268°
2026-05-01 13:12 23.14576 66.09997 33736 ft 449 kts 268°
2026-05-01 13:12 23.14356 66.03215 33737 ft 449 kts 268°
2026-05-01 13:13 23.14133 65.96439 33739 ft 449 kts 268°
2026-05-01 13:13 23.13908 65.89660 33736 ft 449 kts 268°
2026-05-01 13:14 23.13679 65.82874 33743 ft 449 kts 268°
2026-05-01 13:14 23.13448 65.76086 33742 ft 450 kts 268°
2026-05-01 13:15 23.13213 65.69296 33747 ft 450 kts 268°
2026-05-01 13:15 23.12975 65.62501 33748 ft 450 kts 268°
2026-05-01 13:16 23.12735 65.55716 33745 ft 451 kts 268°
2026-05-01 13:16 23.12491 65.48902 33748 ft 451 kts 268°
2026-05-01 13:17 23.11994 65.35267 33753 ft 452 kts 268°
2026-05-01 13:18 23.11614 65.25078 33749 ft 452 kts 268°
2026-05-01 13:18 23.11356 65.18260 33758 ft 452 kts 268°
2026-05-01 13:19 23.11095 65.11423 33756 ft 452 kts 268°
2026-05-01 13:20 23.10698 65.01173 33755 ft 453 kts 268°
2026-05-01 13:20 23.10430 64.94364 33756 ft 453 kts 268°
2026-05-01 13:21 23.10021 64.84082 33764 ft 454 kts 268°
2026-05-01 13:21 23.09744 64.77223 33765 ft 455 kts 268°
2026-05-01 13:22 23.09464 64.70358 33763 ft 455 kts 268°
2026-05-01 13:22 23.09180 64.63484 33763 ft 455 kts 268°
2026-05-01 13:23 23.08894 64.56616 33764 ft 455 kts 268°
2026-05-01 13:23 23.08605 64.49754 33764 ft 455 kts 268°
2026-05-01 13:24 23.08314 64.42923 33766 ft 455 kts 268°
2026-05-01 13:25 23.07870 64.32623 33767 ft 455 kts 268°
2026-05-01 13:25 23.07569 64.25744 33772 ft 456 kts 268°
2026-05-01 13:26 23.07266 64.18857 33769 ft 456 kts 268°
2026-05-01 13:26 23.06959 64.11979 33771 ft 457 kts 268°
2026-05-01 13:27 23.06650 64.05124 33773 ft 457 kts 268°
2026-05-01 13:27 23.06177 63.94781 33776 ft 457 kts 268°
2026-05-01 13:28 23.05762 63.84419 33776 ft 457 kts 271°
2026-05-01 13:29 23.05968 63.70615 33775 ft 458 kts 272°
2026-05-01 13:31 23.06227 63.49859 33780 ft 458 kts 272°
2026-05-01 13:32 23.06389 63.32555 33785 ft 459 kts 271°
2026-05-01 13:33 23.06533 63.15259 33782 ft 459 kts 271°
2026-05-01 13:34 23.06636 63.01393 33778 ft 459 kts 271°
2026-05-01 13:35 23.06705 62.90991 33783 ft 459 kts 271°
2026-05-01 13:36 23.06767 62.80577 33775 ft 459 kts 271°
2026-05-01 13:36 23.06823 62.70173 33786 ft 459 kts 271°
2026-05-01 13:37 23.06856 62.63243 33789 ft 459 kts 271°
2026-05-01 13:37 23.06886 62.56301 33790 ft 459 kts 271°
2026-05-01 13:38 23.06925 62.45922 33784 ft 458 kts 271°
2026-05-01 13:39 23.06947 62.39048 33787 ft 457 kts 271°
2026-05-01 13:39 23.06966 62.32154 33788 ft 456 kts 271°
2026-05-01 13:40 23.06983 62.25279 33789 ft 456 kts 271°
2026-05-01 13:40 23.06996 62.18398 33789 ft 455 kts 270°
2026-05-01 13:41 23.07006 62.11520 33789 ft 455 kts 270°
2026-05-01 13:41 23.07013 62.04638 33792 ft 455 kts 270°
2026-05-01 13:42 23.07017 61.97768 33793 ft 455 kts 270°
2026-05-01 13:42 23.07017 61.90884 33787 ft 455 kts 270°
2026-05-01 13:43 23.07014 61.84006 33790 ft 455 kts 270°
2026-05-01 13:43 23.07008 61.77134 33793 ft 455 kts 270°
2026-05-01 13:44 23.06998 61.70268 33790 ft 455 kts 270°
2026-05-01 13:44 23.06973 61.63435 33790 ft 455 kts 270°
2026-05-01 13:45 23.06942 61.56524 33797 ft 455 kts 270°
2026-05-01 13:45 23.06910 61.49700 33798 ft 455 kts 270°
2026-05-01 13:46 23.06312 61.42861 33798 ft 455 kts 262°
2026-05-01 13:46 23.05348 61.36058 33795 ft 456 kts 262°
2026-05-01 13:47 23.04396 61.29242 33801 ft 455 kts 262°
2026-05-01 13:47 23.03484 61.22439 33800 ft 455 kts 263°
2026-05-01 13:48 23.02583 61.15645 33797 ft 455 kts 263°
2026-05-01 13:48 23.01680 61.08855 33798 ft 455 kts 262°
2026-05-01 13:49 23.00769 61.02057 33800 ft 454 kts 262°
2026-05-01 13:49 22.99857 60.95265 33797 ft 454 kts 262°
2026-05-01 13:50 22.98947 60.88487 33798 ft 453 kts 262°
2026-05-01 13:50 22.98049 60.81758 33800 ft 453 kts 262°
2026-05-01 13:51 22.97143 60.75003 33805 ft 453 kts 262°
2026-05-01 13:51 22.96231 60.68236 33801 ft 453 kts 262°
2026-05-01 13:52 22.95315 60.61474 33803 ft 452 kts 262°
2026-05-01 13:52 22.94399 60.54729 33806 ft 452 kts 262°
2026-05-01 13:53 22.93479 60.47982 33806 ft 452 kts 262°
2026-05-01 13:53 22.92096 60.37881 33805 ft 451 kts 262°
2026-05-01 13:54 22.91171 60.31158 33805 ft 451 kts 262°
2026-05-01 13:54 22.90242 60.24423 33804 ft 450 kts 262°
2026-05-01 13:55 22.89317 60.17752 33813 ft 450 kts 262°
2026-05-01 13:55 22.88372 60.11013 33806 ft 449 kts 262°
2026-05-01 13:56 22.87435 60.04361 33809 ft 449 kts 262°
2026-05-01 13:56 22.86642 59.98750 33811 ft 448 kts 262°
2026-05-01 13:57 22.85697 59.92079 33807 ft 448 kts 262°
2026-05-01 13:57 22.84757 59.85429 33810 ft 448 kts 262°
2026-05-01 13:58 22.83837 59.78761 33806 ft 448 kts 262°
2026-05-01 13:58 22.82914 59.72073 33808 ft 448 kts 262°
2026-05-01 13:59 22.81985 59.65400 33806 ft 448 kts 262°
2026-05-01 13:59 22.81052 59.58727 33823 ft 447 kts 262°
2026-05-01 14:00 22.80117 59.52075 33817 ft 446 kts 262°
2026-05-01 14:00 22.79181 59.45429 33830 ft 445 kts 262°
2026-05-01 14:01 22.78246 59.38809 33821 ft 445 kts 262°
2026-05-01 14:01 22.77307 59.32188 33834 ft 444 kts 262°
2026-05-01 14:02 22.76358 59.25553 33838 ft 445 kts 262°
2026-05-01 14:02 22.75405 59.18928 33843 ft 446 kts 261°
2026-05-01 14:03 22.74445 59.12274 33844 ft 447 kts 261°
2026-05-01 14:03 22.73482 59.05624 33849 ft 447 kts 261°
2026-05-01 14:04 22.72517 58.98971 33832 ft 447 kts 261°
2026-05-01 14:04 22.71547 58.92307 33829 ft 448 kts 261°
2026-05-01 14:05 22.70574 58.85645 33831 ft 448 kts 261°
2026-05-01 14:05 22.69598 58.78984 33822 ft 448 kts 261°
2026-05-01 14:06 22.68625 58.72370 33813 ft 448 kts 261°
2026-05-01 14:06 22.67653 58.65765 33808 ft 448 kts 262°
2026-05-01 14:07 22.67332 58.59065 33812 ft 447 kts 268°
2026-05-01 14:08 22.67125 58.48963 33802 ft 448 kts 268°
2026-05-01 14:08 22.66978 58.42229 33805 ft 447 kts 268°
2026-05-01 14:09 22.66826 58.35499 33810 ft 447 kts 268°
2026-05-01 14:09 22.66671 58.28768 33819 ft 447 kts 268°
2026-05-01 14:10 22.66513 58.22053 33813 ft 447 kts 268°
2026-05-01 14:10 22.66353 58.15334 33811 ft 447 kts 268°
2026-05-01 14:11 22.66190 58.08608 33814 ft 447 kts 268°
2026-05-01 14:11 22.65940 57.98502 33810 ft 448 kts 268°
2026-05-01 14:12 22.65770 57.91761 33820 ft 448 kts 268°
2026-05-01 14:12 22.65597 57.85028 33813 ft 447 kts 268°
2026-05-01 14:13 22.65451 57.79444 33808 ft 446 kts 268°
2026-05-01 14:13 22.65243 57.71597 33815 ft 445 kts 268°
2026-05-01 14:14 22.65068 57.65132 33819 ft 444 kts 268°
2026-05-01 14:14 22.64886 57.58444 33815 ft 443 kts 268°
2026-05-01 14:15 22.64702 57.51826 33811 ft 442 kts 268°
2026-05-01 14:15 22.64514 57.45176 33816 ft 442 kts 268°
2026-05-01 14:16 22.64324 57.38528 33811 ft 442 kts 268°
2026-05-01 14:16 22.64131 57.31879 33819 ft 442 kts 268°
2026-05-01 14:17 22.63935 57.25229 33820 ft 442 kts 268°
2026-05-01 14:17 22.63737 57.18592 33825 ft 442 kts 268°
2026-05-01 14:18 22.63536 57.11933 33830 ft 442 kts 268°
2026-05-01 14:18 22.63367 57.06410 33828 ft 441 kts 268°
2026-05-01 14:19 22.63126 56.98659 33820 ft 441 kts 268°
2026-05-01 14:19 22.62917 56.92014 33814 ft 441 kts 268°
2026-05-01 14:20 22.62598 56.82063 33809 ft 441 kts 267°
2026-05-01 14:21 22.62383 56.75430 33811 ft 441 kts 267°
2026-05-01 14:21 22.62164 56.68800 33802 ft 441 kts 267°
2026-05-01 14:22 22.61832 56.58861 33799 ft 441 kts 267°
2026-05-01 14:22 22.61606 56.52225 33797 ft 441 kts 267°
2026-05-01 14:23 22.61378 56.45584 33798 ft 441 kts 267°
2026-05-01 14:23 22.61147 56.38950 33808 ft 441 kts 267°
2026-05-01 14:24 22.60914 56.32321 33796 ft 440 kts 267°
2026-05-01 14:24 22.60679 56.25708 33788 ft 440 kts 267°
2026-05-01 14:25 22.60441 56.19103 33793 ft 439 kts 267°
2026-05-01 14:25 22.60201 56.12537 33796 ft 439 kts 267°
2026-05-01 14:26 22.59835 56.02618 33795 ft 439 kts 267°
2026-05-01 14:27 22.59587 55.96011 33795 ft 439 kts 267°
2026-05-01 14:27 22.59337 55.89408 33794 ft 439 kts 267°
2026-05-01 14:28 22.58957 55.79500 33792 ft 440 kts 267°
2026-05-01 14:28 22.58700 55.72892 33793 ft 439 kts 266°
2026-05-01 14:29 22.58441 55.66288 33788 ft 439 kts 266°
2026-05-01 14:30 22.57915 55.53125 33794 ft 439 kts 266°
2026-05-01 14:31 22.57513 55.43230 33794 ft 439 kts 266°
2026-05-01 14:31 22.57241 55.36631 33790 ft 439 kts 266°
2026-05-01 14:32 22.56967 55.30029 33786 ft 439 kts 266°
2026-05-01 14:32 22.56691 55.23438 33790 ft 439 kts 266°
2026-05-01 14:33 22.56411 55.16841 33789 ft 439 kts 266°
2026-05-01 14:33 22.56128 55.10237 33793 ft 439 kts 266°
2026-05-01 14:34 22.55844 55.03642 33791 ft 438 kts 266°
2026-05-01 14:34 22.55557 54.97063 33784 ft 437 kts 266°
2026-05-01 14:35 22.55268 54.90496 33779 ft 437 kts 266°
2026-05-01 14:35 22.54978 54.83981 33785 ft 436 kts 266°
2026-05-01 14:36 22.54685 54.77433 33788 ft 436 kts 266°
2026-05-01 14:36 22.54388 54.70879 33785 ft 436 kts 266°
2026-05-01 14:37 22.54089 54.64324 33789 ft 436 kts 266°
2026-05-01 14:37 22.53787 54.57773 33790 ft 436 kts 266°
2026-05-01 14:38 22.53483 54.51219 33788 ft 436 kts 266°
2026-05-01 14:38 22.53176 54.44659 33786 ft 436 kts 266°
2026-05-01 14:39 22.52866 54.38117 33800 ft 436 kts 266°
2026-05-01 14:39 22.52554 54.31567 33791 ft 436 kts 266°
2026-05-01 14:40 22.52238 54.25005 33791 ft 436 kts 266°
2026-05-01 14:40 22.51923 54.18495 33787 ft 436 kts 266°
2026-05-01 14:41 22.51603 54.11944 33794 ft 436 kts 266°
2026-05-01 14:41 22.51279 54.05376 33791 ft 436 kts 266°
2026-05-01 14:42 22.51006 53.99889 33791 ft 436 kts 266°
2026-05-01 14:42 22.50625 53.92279 33792 ft 436 kts 266°
2026-05-01 14:43 22.50350 53.86829 33794 ft 436 kts 266°
2026-05-01 14:43 22.50017 53.80279 33794 ft 436 kts 266°
2026-05-01 14:44 22.49682 53.73748 33793 ft 435 kts 266°
2026-05-01 14:44 22.49175 53.63965 33790 ft 434 kts 265°
2026-05-01 14:45 22.48664 53.54211 33790 ft 433 kts 265°
2026-05-01 14:46 22.48320 53.47693 33800 ft 433 kts 265°
2026-05-01 14:46 22.47802 53.37995 33793 ft 433 kts 265°
2026-05-01 14:47 22.47453 53.31525 33800 ft 433 kts 265°
2026-05-01 14:48 22.46922 53.21766 33796 ft 433 kts 265°
2026-05-01 14:48 22.46386 53.12019 33803 ft 433 kts 265°
2026-05-01 14:49 22.45663 52.99034 33797 ft 433 kts 265°
2026-05-01 14:50 22.44928 52.86039 33796 ft 433 kts 265°
2026-05-01 14:51 22.44370 52.76299 33806 ft 433 kts 265°
2026-05-01 14:52 22.43808 52.66588 33802 ft 432 kts 265°
2026-05-01 14:53 22.43244 52.56940 33805 ft 432 kts 265°
2026-05-01 14:53 22.42862 52.50452 33807 ft 432 kts 265°
2026-05-01 14:54 22.42479 52.44015 33791 ft 431 kts 265°
2026-05-01 14:54 22.42090 52.37505 33793 ft 431 kts 265°
2026-05-01 14:55 22.41703 52.31089 33800 ft 431 kts 265°
2026-05-01 14:55 22.41310 52.24626 33802 ft 430 kts 265°
2026-05-01 14:56 22.40915 52.18166 33811 ft 430 kts 265°
2026-05-01 14:56 22.40667 52.11751 33801 ft 431 kts 272°
2026-05-01 14:57 22.41227 52.05305 33792 ft 432 kts 274°
2026-05-01 14:57 22.42125 51.95571 33792 ft 432 kts 273°
2026-05-01 14:58 22.42689 51.89163 33804 ft 432 kts 273°
2026-05-01 14:58 22.43244 51.82698 33805 ft 432 kts 273°
2026-05-01 14:59 22.43795 51.76230 33809 ft 432 kts 273°
2026-05-01 14:59 22.44343 51.69772 33799 ft 432 kts 273°
2026-05-01 15:00 22.45161 51.60077 33808 ft 431 kts 273°
2026-05-01 15:01 22.45700 51.53650 33820 ft 430 kts 272°
2026-05-01 15:01 22.46240 51.47177 33809 ft 430 kts 272°
2026-05-01 15:02 22.46775 51.40735 33808 ft 430 kts 272°
2026-05-01 15:02 22.47308 51.34287 33807 ft 430 kts 272°
2026-05-01 15:03 22.47834 51.27885 33811 ft 430 kts 272°
2026-05-01 15:03 22.48365 51.21395 33813 ft 430 kts 272°
2026-05-01 15:04 22.48889 51.14962 33816 ft 430 kts 272°
2026-05-01 15:04 22.49408 51.08554 33817 ft 430 kts 272°
2026-05-01 15:05 22.49928 51.02110 33818 ft 430 kts 272°
2026-05-01 15:05 22.50446 50.95659 33827 ft 430 kts 272°
2026-05-01 15:06 22.50960 50.89217 33817 ft 430 kts 272°
2026-05-01 15:06 22.51470 50.82790 33822 ft 429 kts 272°
2026-05-01 15:07 22.51979 50.76348 33819 ft 429 kts 272°
2026-05-01 15:07 22.52485 50.69919 33819 ft 429 kts 272°
2026-05-01 15:08 22.52988 50.63488 33818 ft 429 kts 272°
2026-05-01 15:08 22.53487 50.57065 33820 ft 429 kts 272°
2026-05-01 15:09 22.53985 50.50635 33819 ft 429 kts 272°
2026-05-01 15:09 22.54480 50.44203 33820 ft 429 kts 272°
2026-05-01 15:10 22.54969 50.37822 33821 ft 429 kts 272°
2026-05-01 15:10 22.55703 50.28177 33823 ft 429 kts 272°
2026-05-01 15:11 22.56433 50.18506 33822 ft 429 kts 272°
2026-05-01 15:12 22.56916 50.12070 33821 ft 429 kts 272°
2026-05-01 15:12 22.57635 50.02419 33820 ft 429 kts 272°
2026-05-01 15:14 22.58822 49.86306 33825 ft 429 kts 271°
2026-05-01 15:14 22.59526 49.76638 33824 ft 429 kts 271°
2026-05-01 15:15 22.60454 49.63789 33827 ft 429 kts 271°
2026-05-01 15:16 22.61372 49.50927 33825 ft 428 kts 271°
2026-05-01 15:18 22.62500 49.34913 33825 ft 426 kts 271°
2026-05-01 15:19 22.63391 49.22101 33825 ft 426 kts 271°
2026-05-01 15:19 22.64051 49.12505 33826 ft 426 kts 271°
2026-05-01 15:20 22.64703 49.02958 33830 ft 426 kts 271°
2026-05-01 15:21 22.65136 48.96562 33825 ft 426 kts 271°
2026-05-01 15:21 22.65567 48.90168 33835 ft 425 kts 271°
2026-05-01 15:22 22.66206 48.80609 33834 ft 424 kts 271°
2026-05-01 15:22 22.66626 48.74275 33832 ft 423 kts 271°
2026-05-01 15:23 22.67047 48.67887 33834 ft 423 kts 271°
2026-05-01 15:23 22.67462 48.61551 33839 ft 423 kts 271°
2026-05-01 15:24 22.67877 48.55191 33836 ft 423 kts 271°
2026-05-01 15:24 22.68287 48.48845 33835 ft 423 kts 271°
2026-05-01 15:25 22.68694 48.42527 33837 ft 423 kts 271°
2026-05-01 15:25 22.69103 48.36127 33837 ft 423 kts 271°
2026-05-01 15:26 22.69439 48.30852 33854 ft 423 kts 271°
2026-05-01 15:26 22.69840 48.24501 33841 ft 422 kts 271°
2026-05-01 15:27 22.70238 48.18171 33835 ft 421 kts 271°
2026-05-01 15:28 22.70829 48.08692 33838 ft 420 kts 271°
2026-05-01 15:28 22.71219 48.02369 33838 ft 420 kts 271°
2026-05-01 15:29 22.71800 47.92903 33841 ft 420 kts 271°
2026-05-01 15:30 22.72565 47.80279 33847 ft 420 kts 271°
2026-05-01 15:31 22.73694 47.61340 33849 ft 419 kts 271°
2026-05-01 15:32 22.74432 47.48747 33852 ft 418 kts 271°
2026-05-01 15:34 22.75513 47.29954 33864 ft 417 kts 271°